Torna al catalogo

STARLINK-32741

AttivoComunicazioniVLEO
NORAD 62526·PAYLOAD·🇺🇸 United States

Lanciato Jan 8, 2025 da Cape Canaveral Space Force Station

Loading…

Prossimi Passaggi (prossime 24 ore)

TLE

AggiornatoSource: CelesTrak SupGP

Epoca: Sep 14, 2026, 21:30 UTC

1 62526C 25004R   26257.89631944  .00037962  00000+0  13753-2 0  2572
2 62526  43.0026 228.0726 0001271 259.8415  75.3966 15.27553159    10

Traccia STARLINK-32741 in tempo reale con AllMySat

Download on the App Store